Location: Songkhla
(7.2000°N, 100.6000°E)
Time: 23:36:15
(UTC+07:00)

ISS - Pass Details

Date: 21 March 2019
Orbit: 408 x 410 km, 51.6° (Epoch: 24 April)

Event Time Altitude Azimuth Distance (km) Brightness Sun altitude
Exits shadow 05:14:33 25° 334° (NNW) 853 -2.4 -17.5°
Maximum altitude 05:16:16 71° 53° (NE) 431 -3.6 -17.1°
Drops below altitude 10° 05:19:32 10° 139° (SE) 1,465 -0.5 -16.2°
Sets 05:21:38 0° 141° (SE) 2,327 0.6 -15.7°
